When you browse on this site, cookies collect data to enhance your experience and personalize the content and advertising you see.
Visit our Privacy Policy to learn more. By continuing to use the site, you agree to this use of cookies and data.
  • In Switzerland
  • List of Countries
  • For 7 days
  • Water Temperature
  • Weather Map
  • Weather Widgets
  • user-avatar
    Login

    Hourly Weather Toulon

    Today, 13 November, Wednesday

    Time Temperature Precipitation Wind Pressure Humidity
    00:00 +5°C° 0 mm 13 mps 739 mmHg 53%
    01:00 +5°C° 0 mm 13 mps 739 mmHg 53%
    02:00 +5°C° 0 mm 12 mps 739 mmHg 53%
    03:00 +5°C° 0 mm 12 mps 738 mmHg 53%
    04:00 +4°C° 0 mm 12 mps 739 mmHg 57%
    05:00 +4°C° 0 mm 12 mps 739 mmHg 61%
    06:00 +4°C° 0 mm 12 mps 739 mmHg 64%
    07:00 +4°C° 0 mm 11 mps 739 mmHg 63%
    08:00 +5°C° 0 mm 10 mps 739 mmHg 62%
    09:00 +6°C° 0 mm 8 mps 739 mmHg 61%
    10:00 +7°C° 0 mm 8 mps 740 mmHg 57%
    11:00 +9°C° 0 mm 8 mps 740 mmHg 53%
    12:00 +10°C° 0 mm 8 mps 740 mmHg 49%
    13:00 +10°C° 0 mm 8 mps 740 mmHg 50%
    14:00 +10°C° 0 mm 8 mps 740 mmHg 51%
    15:00 +9°C° 0 mm 7 mps 740 mmHg 52%
    16:00 +8°C° 0 mm 7 mps 741 mmHg 55%
    17:00 +6°C° 0 mm 7 mps 741 mmHg 59%
    18:00 +5°C° 0 mm 7 mps 742 mmHg 62%
    19:00 +5°C° 0 mm 7 mps 742 mmHg 63%
    20:00 +4°C° 0 mm 7 mps 742 mmHg 64%
    21:00 +4°C° 0 mm 6 mps 742 mmHg 65%
    22:00 +4°C° 0 mm 6 mps 743 mmHg 66%
    23:00 +3°C° 0 mm 5 mps 743 mmHg 66%

    Tomorrow, 14 November, Thursday

    Time Temperature Precipitation Wind Pressure Humidity
    00:00 +3°C° 0 mm 5 mps 743 mmHg 67%
    01:00 +4°C° 0 mm 4 mps 742 mmHg 66%
    02:00 +4°C° 0 mm 3 mps 742 mmHg 64%
    03:00 +4°C° 0 mm 3 mps 742 mmHg 63%
    04:00 +5°C° 0 mm 3 mps 742 mmHg 61%
    05:00 +5°C° 0 mm 3 mps 742 mmHg 59%
    06:00 +5°C° 0 mm 3 mps 742 mmHg 57%
    07:00 +6°C° 0.1 mm 5 mps 741 mmHg 60%
    08:00 +7°C° 0.1 mm 6 mps 741 mmHg 62%
    09:00 +8°C° 0.1 mm 7 mps 740 mmHg 65%
    10:00 +9°C° 3.3 mm 8 mps 740 mmHg 74%
    11:00 +9°C° 3.3 mm 8 mps 740 mmHg 84%
    12:00 +10°C° 3.3 mm 9 mps 739 mmHg 93%
    13:00 +10°C° 2.1 mm 7 mps 739 mmHg 92%
    14:00 +10°C° 2.1 mm 6 mps 738 mmHg 91%
    15:00 +12°C° 2.1 mm 5 mps 737 mmHg 90%
    16:00 +11°C° 1 mm 4 mps 737 mmHg 91%
    17:00 +10°C° 1 mm 4 mps 737 mmHg 92%
    18:00 +10°C° 1 mm 3 mps 736 mmHg 93%
    19:00 +8°C° 1 mm 4 mps 737 mmHg 93%
    20:00 +8°C° 1 mm 5 mps 737 mmHg 93%
    21:00 +7°C° 1 mm 5 mps 737 mmHg 93%
    22:00 +7°C° 0.4 mm 6 mps 737 mmHg 91%
    23:00 +5°C° 0.4 mm 6 mps 738 mmHg 89%

    Day after tomorrow, 15 November, Friday

    Time Temperature Precipitation Wind Pressure Humidity
    00:00 +5°C° 0.4 mm 7 mps 738 mmHg 86%
    01:00 +4°C° 0 mm 6 mps 739 mmHg 86%
    02:00 +5°C° 0 mm 5 mps 739 mmHg 85%
    03:00 +4°C° 0 mm 4 mps 740 mmHg 84%
    04:00 +4°C° 0 mm 3 mps 740 mmHg 83%
    05:00 +4°C° 0 mm 3 mps 740 mmHg 82%
    06:00 +5°C° 0 mm 2 mps 740 mmHg 80%
    07:00 +5°C° 0 mm 2 mps 741 mmHg 81%
    08:00 +6°C° 0 mm 2 mps 741 mmHg 78%
    09:00 +7°C° 0 mm 2 mps 741 mmHg 74%
    10:00 +8°C° 0 mm 2 mps 741 mmHg 69%
    11:00 +10°C° 0 mm 1 mps 741 mmHg 64%
    12:00 +11°C° 0 mm 1 mps 741 mmHg 59%
    13:00 +11°C° 0.1 mm 1 mps 741 mmHg 61%
    14:00 +10°C° 0.1 mm 1 mps 741 mmHg 63%
    15:00 +10°C° 0.1 mm 1 mps 741 mmHg 64%
    16:00 +9°C° 0 mm 1 mps 741 mmHg 67%
    17:00 +8°C° 0 mm 1 mps 742 mmHg 71%
    18:00 +7°C° 0 mm 1 mps 742 mmHg 74%
    19:00 +7°C° 0 mm 1 mps 743 mmHg 74%
    20:00 +7°C° 0 mm 1 mps 744 mmHg 74%
    21:00 +6°C° 0 mm 2 mps 744 mmHg 74%
    22:00 +5°C° 0 mm 2 mps 745 mmHg 75%
    23:00 +5°C° 0 mm 2 mps 745 mmHg 75%

    16 November, Saturday

    Time Temperature Precipitation Wind Pressure Humidity
    00:00 +5°C° 0 mm 2 mps 745 mmHg 76%
    01:00 +5°C° 0 mm 2 mps 746 mmHg 76%
    02:00 +5°C° 0 mm 2 mps 746 mmHg 76%
    03:00 +5°C° 0 mm 2 mps 746 mmHg 76%
    04:00 +4°C° 0 mm 3 mps 746 mmHg 76%
    05:00 +4°C° 0 mm 3 mps 746 mmHg 77%
    06:00 +4°C° 0 mm 4 mps 747 mmHg 77%
    07:00 +5°C° 0 mm 4 mps 747 mmHg 74%
    08:00 +6°C° 0 mm 4 mps 748 mmHg 71%
    09:00 +8°C° 0 mm 4 mps 748 mmHg 67%
    10:00 +10°C° 0 mm 4 mps 748 mmHg 65%
    11:00 +11°C° 0 mm 4 mps 747 mmHg 62%
    12:00 +12°C° 0 mm 4 mps 747 mmHg 59%
    13:00 +11°C° 0 mm 3 mps 747 mmHg 62%
    14:00 +11°C° 0 mm 3 mps 747 mmHg 66%
    15:00 +12°C° 0 mm 2 mps 747 mmHg 69%
    16:00 +10°C° 0 mm 2 mps 747 mmHg 72%
    17:00 +9°C° 0 mm 3 mps 747 mmHg 75%
    18:00 +8°C° 0 mm 3 mps 747 mmHg 78%
    19:00 +7°C° 0 mm 4 mps 746 mmHg 76%
    20:00 +7°C° 0 mm 4 mps 746 mmHg 74%
    21:00 +7°C° 0 mm 5 mps 746 mmHg 71%
    22:00 +6°C° 0 mm 5 mps 745 mmHg 72%
    23:00 +5°C° 0 mm 6 mps 744 mmHg 72%

    17 November, Sunday

    Time Temperature Precipitation Wind Pressure Humidity
    00:00 +4°C° 0 mm 6 mps 744 mmHg 72%
    01:00 +4°C° 0 mm 6 mps 743 mmHg 71%
    02:00 +3°C° 0 mm 6 mps 742 mmHg 70%
    03:00 +3°C° 0 mm 7 mps 741 mmHg 69%
    04:00 +2°C° 0 mm 6 mps 741 mmHg 68%
    05:00 +2°C° 0 mm 6 mps 740 mmHg 67%
    06:00 +2°C° 0 mm 5 mps 740 mmHg 66%
    07:00 +2°C° 0.1 mm 5 mps 740 mmHg 65%
    08:00 +3°C° 0.1 mm 5 mps 740 mmHg 64%
    09:00 +5°C° 0.1 mm 5 mps 740 mmHg 63%
    10:00 +5°C° 0.3 mm 5 mps 740 mmHg 69%
    11:00 +5°C° 0.3 mm 5 mps 740 mmHg 74%
    12:00 +6°C° 0.3 mm 5 mps 739 mmHg 80%
    13:00 +6°C° 0 mm 5 mps 739 mmHg 78%
    14:00 +7°C° 0 mm 6 mps 739 mmHg 75%
    15:00 +8°C° 0 mm 7 mps 739 mmHg 73%
    16:00 +6°C° 0 mm 7 mps 740 mmHg 74%
    17:00 +5°C° 0 mm 8 mps 740 mmHg 75%
    18:00 +4°C° 0 mm 8 mps 740 mmHg 76%
    19:00 +4°C° 0 mm 8 mps 741 mmHg 78%
    20:00 +2°C° 0 mm 8 mps 741 mmHg 79%
    21:00 +2°C° 0 mm 8 mps 742 mmHg 80%
    22:00 +2°C° 0 mm 7 mps 742 mmHg 81%
    23:00 +2°C° 0 mm 6 mps 742 mmHg 82%

    18 November, Monday

    Time Temperature Precipitation Wind Pressure Humidity
    00:00 +2°C° 0 mm 5 mps 742 mmHg 83%
    01:00 +2°C° 0 mm 5 mps 742 mmHg 81%
    02:00 +2°C° 0 mm 5 mps 742 mmHg 80%
    03:00 +3°C° 0 mm 4 mps 742 mmHg 78%
    04:00 +3°C° 0 mm 4 mps 742 mmHg 77%
    05:00 +4°C° 0 mm 3 mps 742 mmHg 76%
    06:00 +4°C° 0 mm 3 mps 743 mmHg 74%
    07:00 +6°C° 0 mm 2 mps 743 mmHg 73%
    08:00 +7°C° 0 mm 2 mps 743 mmHg 72%
    09:00 +8°C° 0 mm 2 mps 744 mmHg 71%
    10:00 +9°C° 0.1 mm 2 mps 744 mmHg 73%
    11:00 +9°C° 0.1 mm 3 mps 744 mmHg 74%
    12:00 +9°C° 0.1 mm 3 mps 744 mmHg 75%
    13:00 +9°C° 0.2 mm 3 mps 744 mmHg 77%
    14:00 +9°C° 0.2 mm 2 mps 744 mmHg 79%
    15:00 +9°C° 0.2 mm 2 mps 744 mmHg 81%
    16:00 +9°C° 0.1 mm 3 mps 744 mmHg 82%
    17:00 +8°C° 0.1 mm 3 mps 745 mmHg 83%
    18:00 +7°C° 0.1 mm 4 mps 745 mmHg 84%
    19:00 +7°C° 0 mm 4 mps 745 mmHg 84%
    20:00 +7°C° 0 mm 4 mps 746 mmHg 85%
    21:00 +7°C° 0 mm 4 mps 746 mmHg 85%
    22:00 +7°C° 0 mm 4 mps 746 mmHg 85%
    23:00 +8°C° 0 mm 3 mps 746 mmHg 85%
    Show more